Regional Weather Roundup
Issued by NWS

Home | Current Version | Previous Version | Graphics & Text | Print | Product List | Glossary On
Versions: 1 2 3 4 5 6 7 8 9 10 11 12 13 14 15 16 17 18 19 20 21 22 23 24 25 26 27 28 29 30 31 32 33 34 35 36 37 38 39 40 41 42 43 44 45 46 47 48 49 50
000
ASUS43 KMPX 302201
RWRMN
WEATHER ROUNDUP FOR MINNESOTA
NATIONAL WEATHER SERVICE TWIN CITIES/CHANHASSEN MN
500 PM CDT TUE SEP 30 2014


NOTE: "FAIR" INDICATES FEW OR NO CLOUDS BELOW 12,000 FEET WITH NO
SIGNIFICANT WEATHER AND/OR OBSTRUCTIONS TO VISIBILITY. N/A MEANS
CURRENT SKY AND/OR WEATHER CONDITIONS ARE NOT AVAILABLE.

MNZ060>063-068>070-302300-
   Twin Cities Metro

CITY           SKY/WX    TMP DP  RH WIND       PRES   REMARKS
TWIN CITIES    CLOUDY    58  44  60 E13       29.92R
ST PAUL        CLOUDY    57  45  64 SE12G17   29.93F
CRYSTAL        CLOUDY    59  43  55 SE13      29.90S
BLAINE         PTSUNNY   57  46  67 E12G17    29.91S
LAKEVILLE      CLOUDY    57  45  62 E14       29.91S
EDEN PRAIRIE   CLOUDY    58  45  62 SE13      29.90S
SOUTH ST PAUL  CLOUDY    59  44  58 E10       29.92S
LAKE ELMO      FAIR      55  45  67 SE10      29.93F
$$
MNZ001>005-007-008-013>017-022>024-027-028-302300-
   Northwest Minnesota

CITY           SKY/WX    TMP DP  RH WIND       PRES   REMARKS
BEMIDJI        PTSUNNY   55  42  62 SE21      29.83F
HALLOCK          N/A     59  45  58 SE17G25   29.73F
ROSEAU         PTSUNNY   61  45  55 SE17      29.81F
WARROAD        MOSUNNY   59  46  63 SE13G21   29.83F
THIEF RVR FALL PTSUNNY   57  43  58 E20G26    29.75F
CROOKSTON      LGT RAIN  61  46  59 SE16G24   29.73S
FOSSTON        PTSUNNY   59  43  55 E13G24    29.77F
DETROIT LAKES  PTSUNNY   57  43  58 SE23      29.76F
PARK RAPIDS    PTSUNNY   56  42  59 SE14G22   29.83F
MAHNOMEN       CLOUDY    58  43  57 SE16G25   29.75F
$$
MNZ006-009>011-018-025>026-302300-
   North Central Minnesota

CITY           SKY/WX    TMP DP  RH WIND       PRES   REMARKS
BAUDETTE       MOSUNNY   56  42  59 SE13G21   29.86F
FLAG ISLAND    SUNNY     55  46  71 E8        29.85F
INTL FALLS     SUNNY     57  43  59 SE9       29.91F
WASKISH        PTSUNNY   59  46  63 CALM      29.86F
BIG FORK       MOSUNNY   57  43  58 SE6G16    29.91F
LONGVILLE      PTSUNNY   55  45  67 E5        29.87F
GRAND RAPIDS   PTSUNNY   54  39  58 SE9G17    29.92F
CRANE LAKE     SUNNY     59  41  51 SE5       29.95F
ORR            SUNNY     57  37  47 SE6       29.91S
COOK           SUNNY     57  43  58 SE8       29.94F
WALKER         MOCLDY    55  42  62 SE10G17   29.85F
$$
MNZ012-019>021-037-302300-
   Northeast Minnesota

CITY           SKY/WX    TMP DP  RH WIND       PRES   REMARKS
DULUTH         PTSUNNY   47  41  80 E13G22    29.97F
ELY            SUNNY     55  39  54 SE10      29.97F
HIBBING        MOSUNNY   53  42  66 SE12      29.95F
EVELETH        MOSUNNY   52  41  66 SE8G16    29.97S
DULUTH HARBOR  MOSUNNY   50  45  81 NE23      29.99F
TWO HARBORS    CLOUDY    45  39  81 E15       29.99F
SILVER BAY     SUNNY     43  43 100 E12G17    30.01F
GRAND MARAIS     N/A     50  39  66 E15       30.06F
G MARAIS ARPRT SUNNY     48  34  57 E10       30.05S
$$
MNZ029>031-032-039>041-046>048-054>057-064-302300-
   West Central Minnesota

CITY           SKY/WX    TMP DP  RH WIND       PRES   REMARKS
FERGUS FALLS   CLOUDY    57  45  62 SE23      29.74S
WHEATON        PTSUNNY   54  46  76 SE21G26   29.74S
MORRIS         CLOUDY    57  48  72 SE22G31   29.75F
ALEXANDRIA     PTSUNNY   56  45  66 SE17G30   29.82F
ELBOW LAKE     CLOUDY    55  47  74 E16G24    29.74F
WADENA         PTSUNNY   55  43  62 E16       29.80F
GLENWOOD       PTSUNNY   57  46  67 SE14G23   29.83R
APPLETON       CLOUDY    57  48  72 SE21G26   29.75F
BENSON         CLOUDY    57  48  72 S15G26    29.79S
ORTONVILLE     CLOUDY    55  48  76 SE14G20   29.73S
MADISON        CLOUDY    63  52  67 SE16      29.74F
WILLMAR          N/A     59  46  63 SE21G28   29.85R
$$
MNZ033>034-036-042>043-049>051-058-059-302300-
   Central Minnesota

CITY           SKY/WX    TMP DP  RH WIND       PRES   REMARKS
ST CLOUD       PTSUNNY   59  43  55 SE13      29.89S
SAUK CENTRE    CLOUDY    55  44  68 E15G25    29.83F
PAYNESVILLE    PTSUNNY   54  44  71 NE18G24   29.84F
AITKIN         PTSUNNY   59  45  58 E7        29.89F
PINE RIVER     CLOUDY    55  45  67 SE16      29.90F
BRAINERD       PTSUNNY   53  44  71 E8        29.89F
STAPLES        PTSUNNY   54  43  66 SE8       29.85F
LONG PRAIRIE   PTSUNNY   54  43  66 E10G21    29.84F
LITTLE FALLS   PTSUNNY   54  43  66 E12       29.88F
LITCHFIELD     PTSUNNY   57  48  72 SE17      29.87F
BUFFALO        PTSUNNY   57  43  60 SE8       29.91R
MAPLE LAKE     PTSUNNY   57  47  68 E10G16    29.90S
$$
MNZ037-044-045-052-053-302300-
   East Central Minnesota

CITY           SKY/WX    TMP DP  RH WIND       PRES   REMARKS
PRINCETON      PTSUNNY   57  45  62 E9        29.91S
MORA           CLOUDY    54  43  66 E9G16     29.93F
CAMBRIDGE      CLOUDY    57  45  62 E9G16     29.89F
RUSH CITY      PTSUNNY   56  44  64 E7        29.93F
MOOSE LAKE     PTSUNNY   54  45  71 E7        29.93S
HINCKLEY       FAIR      55  45  67 E8        29.94F
CLOQUET        PTSUNNY   48  41  76 E9G16     29.97S
MCGREGOR       PTSUNNY   55  45  67 E12       29.92F
$$
MNZ071>073-080-081-089-090-097-098-302300-
   Southwest Minnesota

CITY           SKY/WX    TMP DP  RH WIND       PRES   REMARKS
MONTEVIDEO     CLOUDY    57  50  77 S18G26    29.78F
GRANITE FALLS  CLOUDY    60  50  69 E16G22    29.79F
CANBY          CLOUDY    61  55  78 SE15G24   29.74F
MARSHALL       CLOUDY    63  52  67 SE17G23   29.76F
REDWOOD FALLS  CLOUDY    62  51  67 SE17G24   29.82S
OLIVIA         CLOUDY    59  50  72 SE15G22   29.83S
PIPESTONE      CLOUDY    63  57  82 S16G24    29.74F
WINDOM         LGT RAIN  61  55  82 SE12      29.84F
WORTHINGTON    CLOUDY    59  55  88 SE16      29.79F
JACKSON        CLOUDY    63  54  72 SE8       29.86S
TRACY          LGT RAIN  60  57  90 SW10G22   29.79F
SLAYTON        CLOUDY    58  57  96 SE12G23   29.80S FOG
$$
MNZ065>067-074>077-082>085-091>093-302300-
   South Central Minnesota

CITY           SKY/WX    TMP DP  RH WIND       PRES   REMARKS
MANKATO        CLOUDY    61  46  59 SE17      29.87F
NEW ULM        PTSUNNY   61  54  77 SE9       29.86S
ST JAMES       PTSUNNY   64  54  68 SE9       29.87R
FAIRMONT       CLOUDY    64  52  63 SE8       29.86S
GLENCOE        PTSUNNY   60  45  58 E15       29.88F
FARIBAULT      PTSUNNY   61  48  63 E10       29.90F
OWATONNA       PTSUNNY   61  48  63 E15       29.89F
WASECA         PTSUNNY   59  45  58 E12       29.91S
ALBERT LEA     PTSUNNY   63  52  67 SE10      29.89F
$$
MNZ078>079-086>088-094>096-302300-
   Southeast Minnesota

CITY           SKY/WX    TMP DP  RH WIND       PRES   REMARKS
ROCHESTER      CLOUDY    56  47  71 SE12      29.94F
RED WING       CLOUDY    57  43  58 SE14      29.93F
STANTON        CLOUDY    59  45  60 SE9G18    29.91S
DODGE CENTER   CLOUDY    59  46  63 SE15      29.92S
WINONA         CLOUDY    54  45  71 SE12      29.97F
AUSTIN         PTSUNNY   63  48  59 SE12G17   29.90F
PRESTON        CLOUDY    56  44  65 SE10      29.95S
$$
ABBREVIATIONS USED IN REMARKS
   TC - TEMPERATURES IN CELSIUS
  WCI - WIND CHILL INDEX
   HX - HEAT INDEX
  VSB - VISIBILITY
$$


USA.gov is the U.S. government's official web portal to all federal, state and local government web resources and services.